Weather History for Highgate, VT

Change the Weather History Date:

Tuesday, November 29, 2011

  Actual Average (KPBG) Record (KPBG)
Temperature  
Mean Temperature 50 °F 31 °F  
Max Temperature 60 °F 40 °F 62 °F (2011)
Min Temperature 39 °F 23 °F 8 °F (1977)
Degree Days  
Heating Degree Days 16 34  
Month to date heating degree days 816  
Since 1 July heating degree days 1599  
Moisture  
Dew Point 44 °F    
Average Humidity 94    
Maximum Humidity 100    
Minimum Humidity 77    
Precipitation  
Precipitation 0.00 in - 0.82 in (1984)
Month to date precipitation  
Year to date precipitation  
Sea Level Pressure  
Sea Level Pressure 29.92 in    
Wind  
Wind Speed 1 mph (NNW)    
Max Wind Speed 7 mph    
Max Gust Speed -    
Visibility 10 miles    
Events Rain    
T = Trace of Precipitation, MM = Missing Value Source: NWS Daily Summary

Daily Weather History Graph

Daily Weather History Graph

Search for Another Location

Airport:

Trip Planner

Search our weather history database for the weather conditions in past years. The results will help you decide how hot, cold, wet, or windy it might be!

Date:

Astronomy

Nov. 29, 2011 Rise Set
Actual Time 7:07 AM EST 4:13 PM EST
Civil Twilight 6:34 AM EST 4:46 PM EST
Nautical Twilight 5:58 AM EST 5:22 PM EST
Astronomical Twilight 5:22 AM EST 5:58 PM EST
Moon 10:48 AM EST (11/29) 9:09 PM EST (11/29)
Length of Visible Light 10h 11m
Length of Day
9h 05m
Waxing Crescent, 24% of the Moon is Illuminated
Nov 29
Waxing Crescent
Dec 2
First Quarter
Dec 10
Full
Dec 17
Last Quarter
Dec 24
New

Hourly Weather History & Observations

Time (EST) Temp. Windchill Dew Point Humidity Pressure Visibility Wind Dir Wind Speed Gust Speed Precip Events Conditions
12:15 AM 41.0 °F - 39.2 °F 93% 30.08 in 10.0 mi Calm Calm - N/A   Overcast
12:35 AM 41.0 °F - 39.2 °F 93% 30.07 in 10.0 mi Calm Calm - N/A   Overcast
1:15 AM 41.0 °F - 41.0 °F 100% 30.05 in 10.0 mi Calm Calm - N/A   Overcast
1:35 AM 42.8 °F - 41.0 °F 93% 30.05 in 10.0 mi Calm Calm - N/A   Overcast
1:55 AM 41.0 °F - 41.0 °F 100% 30.05 in 10.0 mi Calm Calm - N/A   Overcast
2:15 AM 41.0 °F - 41.0 °F 100% 30.05 in 10.0 mi Calm Calm - N/A   Overcast
2:35 AM 41.0 °F - 39.2 °F 93% 30.04 in 10.0 mi Calm Calm - N/A   Overcast
2:55 AM 41.0 °F - 39.2 °F 93% 30.04 in 10.0 mi Calm Calm - N/A   Overcast
3:15 AM 41.0 °F - 41.0 °F 100% 30.03 in 10.0 mi Calm Calm - N/A   Overcast
3:35 AM 41.0 °F - 41.0 °F 100% 30.03 in 10.0 mi Calm Calm - N/A   Overcast
3:55 AM 41.0 °F - 41.0 °F 100% 30.03 in 10.0 mi Calm Calm - N/A   Overcast
4:15 AM 41.0 °F - 41.0 °F 100% 30.02 in 10.0 mi Calm Calm - N/A   Overcast
4:35 AM 41.0 °F 39.0 °F 39.2 °F 93% 30.02 in 10.0 mi SE 3.5 mph - N/A   Scattered Clouds
4:55 AM 41.0 °F - 39.2 °F 93% 30.01 in 10.0 mi Calm Calm - N/A   Scattered Clouds
5:15 AM 39.2 °F - 37.4 °F 93% 30.01 in 10.0 mi Calm Calm - N/A   Scattered Clouds
5:35 AM 41.0 °F - 39.2 °F 93% 30.00 in 10.0 mi Calm Calm - N/A   Mostly Cloudy
5:55 AM 41.0 °F - 41.0 °F 100% 29.99 in 10.0 mi Calm Calm - N/A   Overcast
6:15 AM 41.0 °F - 41.0 °F 100% 29.99 in 10.0 mi Calm Calm - N/A   Overcast
6:35 AM 41.0 °F - 41.0 °F 100% 29.98 in 10.0 mi Calm Calm - N/A   Overcast
6:55 AM 42.8 °F - 41.0 °F 93% 29.98 in 10.0 mi Calm Calm - N/A   Overcast
7:35 AM 42.8 °F - 41.0 °F 93% 29.98 in 10.0 mi Calm Calm - N/A   Overcast
7:55 AM 42.8 °F - 41.0 °F 93% 29.97 in 10.0 mi Calm Calm - N/A   Overcast
8:15 AM 42.8 °F - 41.0 °F 93% 29.98 in 10.0 mi Calm Calm - N/A   Scattered Clouds
8:35 AM 42.8 °F 41.1 °F 42.8 °F 100% 29.97 in 10.0 mi NNE 3.5 mph - N/A   Mostly Cloudy
8:55 AM 44.6 °F - 44.6 °F 100% 29.96 in 10.0 mi Calm Calm - N/A   Overcast
9:15 AM 48.2 °F - 46.4 °F 93% 29.96 in 10.0 mi South 4.6 mph - N/A   Overcast
9:35 AM 46.4 °F - 44.6 °F 93% 29.96 in 10.0 mi Calm Calm - N/A   Overcast
9:55 AM 44.6 °F - 44.6 °F 100% 29.97 in 10.0 mi Calm Calm - N/A   Overcast
10:15 AM 46.4 °F - 44.6 °F 93% 29.97 in 10.0 mi Calm Calm - N/A   Overcast
10:35 AM 44.6 °F - 44.6 °F 100% 29.96 in 10.0 mi Calm Calm - N/A   Overcast
10:55 AM 46.4 °F - 44.6 °F 93% 29.96 in 10.0 mi Calm Calm - N/A   Overcast
11:15 AM 48.2 °F - 46.4 °F 93% 29.94 in 10.0 mi Calm Calm - N/A   Overcast
11:35 AM 50.0 °F - 46.4 °F 87% 29.93 in 10.0 mi Calm Calm - N/A   Overcast
11:55 AM 53.6 °F - 50.0 °F 88% 29.92 in 10.0 mi Calm Calm - N/A   Mostly Cloudy
12:15 PM 55.4 °F - 50.0 °F 82% 29.90 in 10.0 mi Calm Calm - N/A   Mostly Cloudy
12:35 PM 60.8 °F - 53.6 °F 77% 29.90 in 10.0 mi SSW 3.5 mph - N/A   Mostly Cloudy
12:55 PM 59.0 °F - 51.8 °F 77% 29.90 in 10.0 mi NW 3.5 mph - N/A   Mostly Cloudy
1:15 PM 55.4 °F - 50.0 °F 82% 29.89 in 10.0 mi Calm Calm - N/A Rain Light Rain
1:35 PM 55.4 °F - 51.8 °F 88% 29.88 in 10.0 mi Calm Calm - N/A   Overcast
1:55 PM 55.4 °F - 50.0 °F 82% 29.87 in 10.0 mi Calm Calm - N/A   Overcast
2:15 PM 55.4 °F - 51.8 °F 88% 29.87 in 10.0 mi SSW 3.5 mph - N/A   Mostly Cloudy
2:55 PM 53.6 °F - 50.0 °F 88% 29.87 in 10.0 mi North 6.9 mph - N/A   Mostly Cloudy
3:15 PM 51.8 °F - 48.2 °F 88% 29.86 in 10.0 mi Calm Calm - N/A   Overcast
3:35 PM 50.0 °F - 48.2 °F 94% 29.85 in 10.0 mi Calm Calm - N/A   Overcast
3:55 PM 51.8 °F - 48.2 °F 88% 29.84 in 10.0 mi Calm Calm - N/A   Overcast
4:15 PM 48.2 °F - 46.4 °F 93% 29.84 in 10.0 mi NW 3.5 mph - N/A   Overcast
4:35 PM 48.2 °F - 46.4 °F 93% 29.84 in 10.0 mi NNW 6.9 mph - N/A   Overcast
4:55 PM 46.4 °F 44.3 °F 44.6 °F 93% 29.84 in 10.0 mi North 4.6 mph - N/A   Overcast
5:15 PM 44.6 °F 42.2 °F 44.6 °F 100% 29.84 in 10.0 mi NW 4.6 mph - N/A   Overcast
5:35 PM 42.8 °F - 42.8 °F 100% 29.84 in 7.0 mi Calm Calm - N/A   Overcast
6:15 PM 42.8 °F - 42.8 °F 100% 29.81 in 10.0 mi Calm Calm - N/A   Overcast
6:35 PM 44.6 °F - 44.6 °F 100% 29.80 in 10.0 mi Calm Calm - N/A   Overcast
6:55 PM 42.8 °F - 42.8 °F 100% 29.78 in 10.0 mi Calm Calm - N/A   Overcast
7:15 PM 42.8 °F - 42.8 °F 100% 29.77 in 10.0 mi Calm Calm - N/A   Mostly Cloudy
7:35 PM 42.8 °F - 41.0 °F 93% 29.77 in 10.0 mi Calm Calm - N/A   Clear
8:15 PM 42.8 °F 41.1 °F 41.0 °F 93% 29.74 in 10.0 mi NW 3.5 mph - N/A   Clear
8:35 PM 42.8 °F - 41.0 °F 93% 29.74 in 10.0 mi Calm Calm - N/A   Scattered Clouds
8:55 PM 42.8 °F 41.1 °F 41.0 °F 93% 29.74 in 10.0 mi North 3.5 mph - N/A   Overcast
9:15 PM 42.8 °F 41.1 °F 41.0 °F 93% 29.72 in 10.0 mi North 3.5 mph - N/A   Overcast
9:35 PM 42.8 °F 38.6 °F 41.0 °F 93% 29.70 in 10.0 mi NNE 6.9 mph - N/A   Overcast
9:55 PM 42.8 °F - 41.0 °F 93% 29.69 in 10.0 mi Calm Calm - N/A   Overcast
10:15 PM 42.8 °F - 41.0 °F 93% 29.67 in 10.0 mi Calm Calm - N/A   Overcast
10:55 PM 42.8 °F 41.1 °F 41.0 °F 93% 29.63 in 10.0 mi North 3.5 mph - N/A   Mostly Cloudy
11:15 PM 42.8 °F - 42.8 °F 100% 29.63 in 10.0 mi Calm Calm - N/A   Mostly Cloudy
11:35 PM 42.8 °F - 42.8 °F 100% 29.62 in 10.0 mi Calm Calm - N/A   Overcast
11:55 PM 42.8 °F 41.1 °F 42.8 °F 100% 29.60 in 4.0 mi WNW 3.5 mph - N/A Rain Rain